Rosario, Argentina

11:17 PM America en Agosto 14, 2018 (GMT +0000)
Rosario

Tiempo Historia de SAAR - Febrero, 2018

Change the Weather History Date:

Miércoles, Febrero 14, 2018

  Actual Average Record
Temperature  
Temperatura media 73 ° F -  
Temperatura máxima 87 ° F 83 ° F 93 ° F (2012)
Temperatura mínima 59 ° F 61 ° F 57 ° F (2004)
Cooling Degree Days 8    
Growing Degree Days 23 (Base 50)    
Moisture  
Punto de rocío 52 ° F    
Average Humidity 46    
Maximum Humidity 83    
Minimum Humidity 17    
Precipitación  
Precipitación 0.00 pul 0.18 pul - ()
Presión al nivel del mar  
Presión al nivel del mar 30.06 pul    
Viento  
Velocidad del viento 6 mph ()    
Velocidad máxima del viento 18 mph    
Max Gust Speed -    
Visibilidad 8.0 Millas    
Eventos      
Averages and records for this station are not official NWS values.
T = Trace of Precipitation, MM = Missing Value Source: Averaged Metar Reports

Daily Weather History Graph

Daily Weather History Graph

Search for Another Location

Airport or City:

Astronomía

Feb. 14, 2018 Salida Puesta
Hora real 6:38 AM -03 7:55 PM -03
Crepúsculo civil 6:12 AM -03 8:21 PM -03
Crepúsculo náutico 5:42 AM -03 8:51 PM -03
Crepúsculo astronómico 5:10 AM -03 9:23 PM -03
Luna 5:22 AM -03 7:18 PM -03
Horas de luz 14h 08m
Horas de luz
13h 16m
Creciente menguante, 2% of the Moon is Illuminated
Feb 14
Creciente menguante
Feb 15
Nueva
Feb 23
Cuarto creciente
Mar 1
Luna llena
Mar 9
Cuarto menguante

Hourly Weather History & Observations

Hora (-03) Temp. Punto de rocío Humedad Presión Visibilidad Wind Dir Velocidad del viento Velocidad de ráfagas Precip Eventos Condiciones
12:00 AM 64 ° F 53 ° F 58% 30.10 pul 9 mi OSO 4.6 mph - -  
12:00 AM 64.4 ° F 53.6 ° F 68% 30.09 pul - OSO 4.6 mph - N/A   Despejado
1:00 AM 64.4 ° F 53.6 ° F 68% 30.09 pul - SO 2.3 mph - N/A   Despejado
2:00 AM 60.8 ° F 53.6 ° F 77% 30.09 pul - Sin viento Sin viento - N/A   Despejado
3:00 AM 62 ° F 55 ° F 73% 30.10 pul 9 mi Sin viento Sin viento - -   Despejado
3:00 AM 60.8 ° F 55.4 ° F 82% 30.09 pul - Sin viento Sin viento - N/A   Despejado
4:00 AM 64.4 ° F 59.0 ° F 83% 30.09 pul - ENE 3.5 mph - N/A   Despejado
5:00 AM 64.4 ° F 55.4 ° F 73% 30.06 pul - ENE 8.1 mph - N/A   Despejado
6:00 AM 63 ° F 57 ° F 74% 30.09 pul 9 mi ENE 4.6 mph - -  
6:00 AM 62.6 ° F 57.2 ° F 82% 30.06 pul - ENE 4.6 mph - N/A   Despejado
7:00 AM 62.6 ° F 55.4 ° F 77% 30.09 pul - NE 9.2 mph - N/A   Despejado
8:00 AM 68.0 ° F 51.8 ° F 56% 30.09 pul - NNE 8.1 mph - N/A   Despejado
9:00 AM 73 ° F 51 ° F 35% 30.13 pul 9 mi NNE 13.8 mph - -  
9:00 AM 73.4 ° F 50.0 ° F 44% 30.12 pul - NNE 13.8 mph - N/A   Despejado
10:00 AM 78.8 ° F 50.0 ° F 36% 30.12 pul - Norte 18.4 mph - N/A   Despejado
11:00 AM 82.4 ° F 46.4 ° F 28% 30.12 pul - NNE 18.4 mph - N/A   Despejado
12:00 PM 82 ° F 47 ° F 19% 30.12 pul 7 mi NNE 13.8 mph - -  
12:00 PM 82.4 ° F 46.4 ° F 28% 30.09 pul - NNE 13.8 mph - N/A   Despejado
1:00 PM 84.2 ° F 50.0 ° F 30% 30.09 pul - NNE 11.5 mph - N/A   Despejado
2:00 PM 86.0 ° F 48.2 ° F 27% 30.06 pul - NNE 11.5 mph - N/A   Despejado
3:00 PM 86 ° F 49 ° F 18% 30.05 pul 7 mi NE 9.2 mph - -  
3:00 PM 86.0 ° F 48.2 ° F 27% 30.04 pul - NE 9.2 mph - N/A   Despejado
4:00 PM 86.0 ° F 48.2 ° F 27% 30.01 pul - Este 11.5 mph - N/A   Despejado
5:00 PM 87.8 ° F 50.0 ° F 27% 30.01 pul - ENE 11.5 mph - N/A   Despejado
6:00 PM 86 ° F 48 ° F 17% 29.99 pul 7 mi Este 11.5 mph - -  
6:00 PM 86.0 ° F 48.2 ° F 27% 29.98 pul - Este 11.5 mph - N/A   Despejado
7:00 PM 84.2 ° F 48.2 ° F 29% 29.98 pul - Este 9.2 mph - N/A   Despejado
8:00 PM 82.4 ° F 48.2 ° F 30% 29.98 pul - Este 6.9 mph - N/A   Desconocido
9:00 PM 80 ° F 50 ° F 25% 30.01 pul 7 mi Este 6.9 mph - -  
9:00 PM 78.8 ° F 50.0 ° F 36% 30.01 pul - Este 6.9 mph - N/A   Despejado
10:00 PM 77.0 ° F 57.2 ° F 50% 30.01 pul - ENE 9.2 mph - N/A   Despejado
11:00 PM 73.4 ° F 57.2 ° F 57% 30.04 pul - NNE 6.9 mph - N/A   Despejado